Tracking 28096 objects as of 28-Sep-2023
HD Live streaming from Space Station
objects crossing your sky now

SL-8 DEB

Track SL-8 DEB now!
10-day predictions


NORAD ID: 27743
Int'l Code: 1991-009CY
Perigee: 1,490.7 km
Apogee: 1,707.4 km
Inclination: 74.1 °
Period: 118.0 minutes
Semi major axis: 7970 km
RCS: 0.0193 m2 (small)
Launch date: February 12, 1991
Source: Commonwealth of Independent States (former USSR) (CIS)
Launch site: PLESETSK MISSILE AND SPACE COMPLEX (PKMTR)

Note: This is SATELLITE DEBRIS
Your satellite tracking list
Your tracking list is empty




NASA's NSSDC Master Catalog

Two Line Element Set (TLE):
1 27743U 91009CY  23271.31767071  .00000300  00000-0  29521-2 0  9993
2 27743  74.0673  26.6626 0135999 242.6429 145.0604 12.20144278133474
Source of the keplerian elements: AFSPC